W5IC Weather Reports


Display with metric or nautical units.
time (UTC)temp
F
wind
direction
speed
MPH
gust
MPH
rain 1hr
in
rain 24hr
in
rain mn
in
humidity
%
barometer
mb
20260510054944 68 72 0.0 2.0 0.00 3.19 0.00 96 1012.1
20260510054206 68 355 0.0 1.0 0.00 3.19 0.00 96 1012.2
20260510053306 68 355 0.0 1.0 0.00 3.19 0.00 96 1012.2
20260510052806 68 351 0.0 2.0 0.00 3.19 0.00 96 1012.2
20260510052307 68 351 0.0 2.0 0.00 3.20 0.00 96 1012.1
20260510051807 68 351 0.0 1.0 0.00 3.20 0.00 96 1012.2
20260510051710 68 351 0.0 1.0 0.00 3.20 0.00 96 1012.2
20260510050807 68 351 0.0 1.0 0.00 3.20 0.00 96 1012.3
20260510050305 68 351 0.0 1.0 0.00 3.20 0.00 96 1012.6
20260510045806 68 351 0.0 1.0 0.00 3.20 3.20 96 1012.6
20260510045306 68 351 0.0 2.0 0.00 3.20 3.20 96 1012.5
20260510044806 68 351 0.0 2.0 0.00 3.20 3.20 96 1012.6
20260510044306 68 351 0.0 2.0 0.00 3.20 3.20 96 1012.7
20260510043806 68 351 0.0 2.0 0.00 3.20 3.20 96 1012.8
20260510043306 68 351 0.0 2.0 0.00 3.20 3.20 96 1012.7
20260510042806 68 351 0.0 1.0 0.00 3.21 3.20 96 1012.7
20260510042307 68 351 1.0 2.0 0.00 3.21 3.20 96 1012.6
20260510041806 68 351 1.0 2.0 0.00 3.21 3.20 96 1012.7
20260510041657 68 351 1.0 2.0 0.00 3.21 3.20 96 1012.6
20260510040806 68 99 0.0 2.0 0.00 3.21 3.20 96 1012.3
20260510040305 67 99 0.0 2.0 0.00 3.24 3.20 96 1012.2
20260510035806 67 99 0.0 2.0 0.00 3.29 3.20 96 1012.2
20260510035306 67 99 0.0 1.0 0.00 3.30 3.20 96 1011.9
20260510034805 67 99 0.0 1.0 0.00 3.31 3.20 96 1011.8
20260510034306 67 99 0.0 2.0 0.00 3.31 3.20 96 1011.8
20260510033806 67 99 0.0 2.0 0.00 3.32 3.20 96 1011.9
20260510033306 67 100 0.0 2.0 0.00 3.32 3.20 96 1011.7
20260510032806 67 99 0.0 1.0 0.00 3.32 3.20 96 1011.6
20260510032306 67 99 0.0 2.0 0.00 3.32 3.20 96 1011.5
20260510031806 67 99 0.0 2.0 0.00 3.32 3.20 96 1011.6
20260510031741 67 99 0.0 2.0 0.00 3.32 3.20 96 1011.7
20260510030806 67 99 0.0 2.0 0.00 3.32 3.20 96 1011.8
20260510030306 67 98 0.0 2.0 0.00 3.32 3.20 96 1011.8
20260510025806 67 96 1.0 2.0 0.00 3.32 3.20 96 1011.6
20260510025306 67 96 1.0 2.0 0.00 3.32 3.20 96 1011.6
20260510024806 67 94 0.0 3.0 0.00 3.32 3.20 96 1011.6
20260510024306 67 95 1.0 3.0 0.00 3.32 3.20 96 1011.7
20260510023805 67 130 1.0 3.0 0.01 3.32 3.20 96 1011.9
20260510023305 67 82 0.0 2.0 0.01 3.32 3.20 96 1012.1
20260510022806 67 333 0.0 1.0 0.01 3.32 3.20 96 1012.4
20260510022621 67 333 1.0 2.0 0.01 3.32 3.20 96 1012.6
20260510021806 67 332 1.0 3.0 0.01 3.32 3.20 96 1012.6
20260510021306 67 332 1.0 3.0 0.01 3.32 3.20 96 1012.3
20260510021147 67 258 1.0 3.0 0.01 3.32 3.20 96 1011.8
20260510020306 67 230 1.0 3.0 0.01 3.32 3.20 96 1011.6
20260510015805 67 141 1.0 3.0 0.01 3.31 3.20 96 1011.6
20260510015306 67 140 1.0 3.0 0.01 3.31 3.20 96 1011.7
20260510014803 67 153 1.0 5.0 0.02 3.31 3.20 96 1011.6
20260510014507 67 119 1.0 5.0 0.02 3.31 3.20 96 1011.7
20260510013304 67 96 0.0 6.0 0.01 3.31 3.19 96 1012.0
20260510012804 67 112 0.0 1.0 0.01 3.31 3.19 96 1012.1
20260510012306 67 112 0.0 2.0 0.02 3.31 3.19 96 1012.0
20260510011804 67 112 1.0 3.0 0.02 3.31 3.19 96 1011.8
20260510011304 67 112 1.0 3.0 0.02 3.31 3.19 96 1012.0
20260510011252 67 111 0.0 3.0 0.02 3.31 3.19 96 1012.1
20260510010747 67 78 0.0 1.0 0.02 3.31 3.19 96 1012.4
20260510005804 67 78 0.0 1.0 0.02 3.29 3.19 96 1012.5
20260510005752 67 78 1.0 2.0 0.02 3.29 3.19 96 1012.7
20260510004804 67 78 0.0 2.0 0.01 3.29 3.18 96 1012.6
20260510004748 67 78 0.0 1.0 0.01 3.29 3.18 96 1012.3
20260510003802 67 78 0.0 1.0 0.01 3.29 3.18 96 1012.2
20260510003302 67 78 0.0 1.0 0.01 3.29 3.18 96 1012.2
20260510002759 67 78 0.0 0.0 0.01 3.29 3.18 96 1012.0
20260510002258 67 78 0.0 1.0 0.00 3.29 3.17 96 1012.1
20260510001756 67 78 0.0 2.0 0.00 3.29 3.17 96 1012.0
20260510001716 67 78 1.0 2.0 0.00 3.29 3.17 96 1011.8
20260510000754 67 78 0.0 2.0 0.00 3.29 3.17 96 1011.6
20260510000256 67 76 0.0 2.0 0.00 3.29 3.17 96 1011.4
20260510000241 67 76 1.0 2.0 0.00 3.29 3.17 96 1011.2
20260509235715 67 76 0.0 2.0 0.00 3.29 3.17 96 1011.0
20260509234746 67 90 0.0 2.0 0.01 3.29 3.17 96 1010.8
20260509234247 67 90 0.0 3.0 0.01 3.29 3.17 96 1010.7
20260509233744 67 90 1.0 3.0 0.02 3.29 3.17 96 1010.7
20260509233731 67 194 1.0 2.0 0.02 3.29 3.17 96 1010.7
20260509232744 67 194 1.0 2.0 0.03 3.29 3.17 96 1010.5
20260509232242 67 126 1.0 5.0 0.04 3.29 3.17 96 1010.4
20260509231744 67 126 2.0 7.0 0.05 3.29 3.17 96 1010.0
20260509231243 67 131 2.0 7.0 0.06 3.29 3.17 96 1010.1
20260509230739 67 117 2.0 7.0 0.08 3.30 3.17 96 1010.0
20260509230239 67 116 2.0 4.0 0.09 3.30 3.17 96 1010.1
20260509225740 67 122 1.0 4.0 0.10 3.22 3.17 96 1010.4
20260509225243 67 96 1.0 7.0 0.12 3.22 3.17 96 1010.6
20260509225234 67 121 1.0 7.0 0.13 3.25 3.16 96 1010.7
20260509224241 67 80 1.0 6.0 0.15 3.28 3.16 96 1010.8
20260509223737 67 123 1.0 6.0 0.16 3.35 3.15 96 1010.8
20260509223237 67 109 1.0 4.0 0.18 3.37 3.14 96 1010.8
20260509222739 67 86 1.0 4.0 0.18 3.37 3.14 96 1010.8
20260509222235 67 108 1.0 2.0 0.18 3.37 3.13 96 1010.9
20260509221740 67 108 1.0 4.0 0.19 3.37 3.12 96 1010.9
20260509221730 67 111 0.0 4.0 0.20 3.37 3.10 96 1011.2
20260509220736 67 110 0.0 1.0 0.19 3.38 3.09 96 1011.2
20260509220235 67 110 0.0 2.0 0.20 3.38 3.08 96 1011.4
20260509215736 67 110 0.0 2.0 0.21 3.19 3.06 96 1011.6
20260509215235 67 110 0.0 2.0 0.22 3.19 3.05 96 1011.5
20260509214735 67 110 0.0 2.0 0.22 3.19 3.03 96 1011.0
20260509214236 67 110 1.0 2.0 0.23 3.19 3.01 96 1010.9
20260509213735 67 110 0.0 2.0 0.23 3.19 2.98 96 1010.9
20260509213638 67 110 1.0 2.0 0.30 3.20 2.96 96 1010.9
20260509212736 67 110 0.0 2.0 0.31 3.21 2.95 96 1011.0
20260509212236 67 113 0.0 3.0 0.31 3.22 2.94 96 1010.9
20260509211735 67 113 0.0 3.0 0.33 3.23 2.93 96 1011.1
20260509211236 67 115 1.0 3.0 0.33 3.23 2.91 96 1011.0
20260509210735 67 84 1.0 3.0 0.32 3.24 2.89 96 1011.1
20260509210235 67 111 1.0 3.0 0.31 3.25 2.87 96 1011.1
20260509205736 67 235 1.0 4.0 0.29 2.96 2.85 96 1011.4
20260509205235 67 107 1.0 4.0 0.27 2.98 2.83 96 1011.3
20260509205218 67 143 0.0 3.0 0.26 2.99 2.81 96 1011.4
20260509204235 67 143 0.0 3.0 0.25 3.00 2.78 96 1011.6
20260509203733 67 181 0.0 2.0 0.26 3.00 2.75 96 1011.6
20260509203233 67 208 0.0 3.0 0.19 3.01 2.67 96 1011.8
20260509202735 67 208 0.0 3.0 0.20 3.01 2.65 96 1011.8
20260509202714 67 155 0.0 1.0 0.24 3.02 2.63 96 1011.6
20260509201937 67 155 0.0 1.0 0.21 3.02 2.60 96 1011.7
20260509200733 67 155 1.0 4.0 0.26 3.03 2.58 96 1011.3
20260509200234 67 117 1.0 4.0 0.26 3.03 2.57 96 1010.9
20260509195735 67 15 1.0 3.0 0.33 2.77 2.57 96 1011.3
20260509195233 67 43 1.0 5.0 0.40 2.77 2.56 96 1011.1
20260509195210 67 134 2.0 7.0 0.39 2.77 2.54 96 1010.9
20260509194235 67 105 1.0 7.0 0.39 2.78 2.52 96 1011.2
20260509193733 67 200 2.0 6.0 0.36 2.78 2.50 96 1011.5
20260509193234 67 118 2.0 7.0 0.35 2.78 2.47 96 1011.7
20260509192735 67 87 2.0 7.0 0.32 2.79 2.44 96 1011.6
20260509192233 67 202 1.0 5.0 0.28 2.80 2.40 96 1011.8
20260509191735 67 103 1.0 4.0 0.27 2.81 2.38 96 1011.7
20260509191727 67 182 1.0 4.0 0.24 2.84 2.35 96 1011.6
20260509190733 68 191 1.0 4.0 0.20 2.89 2.32 96 1012.0
20260509190233 68 108 1.0 6.0 0.19 2.90 2.30 96 1012.1
20260509185735 68 132 1.0 6.0 0.12 2.72 2.23 96 1012.0
20260509185233 68 217 1.0 5.0 0.04 2.72 2.16 96 1012.3
20260509184734 68 219 1.0 5.0 0.04 2.73 2.15 96 1012.9
20260509184724 68 91 1.0 2.0 0.02 2.78 2.14 96 1011.7
20260509183734 68 89 0.0 2.0 0.02 2.84 2.14 96 1012.1
20260509183233 68 82 0.0 2.0 0.01 2.89 2.13 96 1011.9
20260509182735 68 83 1.0 6.0 0.01 2.91 2.13 96 1012.0
20260509182233 68 81 1.0 6.0 0.00 2.98 2.12 96 1011.8
20260509181733 68 121 1.0 4.0 0.00 3.27 2.12 96 1012.2
20260509181235 68 131 1.0 4.0 0.00 3.67 2.12 96 1012.4
20260509180733 68 186 1.0 8.0 0.01 3.96 2.12 96 1012.2
20260509180233 68 110 1.0 8.0 0.01 4.03 2.12 96 1011.8
20260509175735 68 105 1.0 3.0 0.01 4.04 2.12 96 1011.7
20260509175233 68 114 1.0 3.0 0.01 4.07 2.12 96 1011.7
20260509174733 68 119 1.0 4.0 0.01 4.10 2.12 96 1011.6
20260509174234 68 105 1.0 4.0 0.01 4.19 2.12 96 1011.6
20260509173733 68 80 1.0 2.0 0.01 4.30 2.12 96 1011.5
20260509173233 68 111 1.0 3.0 0.01 4.43 2.12 96 1011.4
20260509172734 68 111 2.0 6.0 0.01 4.52 2.12 96 1011.6
20260509172233 68 130 1.0 6.0 0.01 4.65 2.12 96 1011.6
20260509171733 68 76 1.0 3.0 0.01 4.78 2.12 96 1011.6
20260509171235 67 92 1.0 7.0 0.01 4.90 2.12 96 1011.6
20260509170733 67 101 0.0 7.0 0.00 5.12 2.11 96 1011.7
20260509170233 67 101 1.0 3.0 0.00 5.57 2.11 96 1012.0
20260509165734 67 101 1.0 6.0 0.00 6.00 2.11 96 1011.9
20260509165234 67 138 1.0 6.0 0.00 6.23 2.11 96 1011.8
20260509164734 67 113 1.0 4.0 0.00 6.36 2.11 96 1011.8
20260509164234 67 108 1.0 4.0 0.00 6.36 2.11 96 1011.7
20260509163734 67 98 1.0 4.0 0.00 6.36 2.11 96 1012.1
20260509163233 67 109 1.0 4.0 0.00 6.36 2.11 96 1012.5
20260509163223 67 178 1.0 4.0 0.01 6.36 2.11 96 1012.4
20260509162232 67 113 1.0 4.0 0.01 6.36 2.11 96 1012.3
20260509162159 67 92 1.0 3.0 0.01 6.36 2.11 96 1012.3
20260509161235 67 134 1.0 3.0 0.03 6.36 2.11 96 1012.1
20260509160734 67 135 1.0 3.0 0.05 6.36 2.11 96 1012.0
20260509160232 67 132 0.0 2.0 0.06 6.36 2.11 96 1012.1
20260509155735 67 132 0.0 1.0 0.06 6.30 2.11 96 1012.0
20260509155234 66 132 1.0 6.0 0.06 6.30 2.11 96 1012.2
20260509155223 66 132 1.0 6.0 0.06 6.30 2.11 96 1012.4
20260509154235 66 98 0.0 2.0 0.06 6.30 2.11 96 1012.4
20260509153733 66 98 0.0 2.0 0.06 6.30 2.11 96 1012.5
20260509153233 66 98 0.0 2.0 0.06 6.30 2.11 96 1012.5
20260509152736 66 97 0.0 1.0 0.05 6.30 2.10 96 1012.2
20260509152234 66 97 0.0 1.0 0.05 6.30 2.10 96 1012.3
20260509151733 66 97 0.0 2.0 0.05 6.30 2.09 96 1012.2
20260509151235 66 97 0.0 2.0 0.03 6.30 2.07 96 1012.1
20260509150734 66 98 1.0 3.0 0.02 6.30 2.06 96 1011.9
20260509150233 66 97 1.0 3.0 0.01 6.30 2.05 96 1012.1
20260509145735 66 111 0.0 1.0 0.02 6.29 2.05 96 1012.3
20260509145233 66 111 0.0 1.0 0.02 6.29 2.05 96 1012.2
20260509144734 66 111 0.0 4.0 0.02 6.29 2.05 96 1011.9
20260509144235 66 111 1.0 4.0 0.07 6.29 2.05 96 1011.7
20260509143733 66 90 1.0 4.0 0.08 6.29 2.05 96 1011.5
20260509143232 66 86 1.0 3.0 0.11 6.29 2.05 96 1011.3
20260509142726 66 63 0.0 2.0 0.21 6.29 2.05 96 1011.2
20260509142220 66 57 1.0 3.0 0.30 6.29 2.05 96 1011.4
20260509141714 66 57 1.0 3.0 0.37 6.29 2.05 96 1011.3
20260509141212 66 76 1.0 7.0 0.49 6.29 2.04 96 1011.5
20260509140712 66 136 1.0 7.0 0.58 6.29 2.04 96 1011.6
20260509140212 66 134 1.0 4.0 0.66 6.29 2.04 96 1011.6
20260509135714 66 133 1.0 4.0 0.68 5.60 2.03 96 1011.3
20260509135702 65 122 1.0 3.0 0.69 5.60 2.03 96 1011.3
20260509134710 65 123 1.0 3.0 0.70 5.60 2.02 96 1011.2
20260509134211 65 123 1.0 3.0 0.67 5.60 1.97 96 1011.5
20260509133710 65 133 1.0 3.0 0.70 5.60 1.96 96 1011.7
20260509133210 66 103 1.0 3.0 0.78 5.60 1.92 96 1011.7
20260509132711 65 173 0.0 2.0 0.77 5.60 1.82 96 1011.8
20260509132210 66 173 0.0 2.0 0.78 5.60 1.74 96 1011.6
20260509131710 66 173 0.0 2.0 0.76 5.60 1.66 96 1011.6
20260509131210 65 188 0.0 2.0 0.76 5.60 1.55 96 1012.0
20260509130708 65 188 0.0 2.0 0.77 5.60 1.44 96 1012.0
20260509130208 65 149 0.0 3.0 0.87 5.60 1.36 96 1011.5
20260509125708 65 128 1.0 3.0 1.03 4.66 1.34 96 1011.6
20260509125206 65 63 1.0 5.0 1.18 4.66 1.34 96 1011.4
20260509124705 65 126 1.0 5.0 1.29 4.66 1.33 96 1011.4
20260509124203 65 96 1.0 3.0 1.27 4.66 1.30 96 1011.6
20260509123703 65 167 1.0 3.0 1.23 4.66 1.25 96 1011.5
20260509123203 65 68 0.0 3.0 1.11 4.66 1.12 96 1011.7
20260509122703 65 139 1.0 4.0 1.00 4.66 1.03 96 1012.1
20260509122203 65 139 1.0 4.0 0.92 4.66 0.96 96 1011.9
20260509121704 65 72 1.0 4.0 0.87 4.66 0.88 96 1011.5
20260509121203 65 112 1.0 4.0 0.75 4.66 0.75 95 1011.7
20260509120703 65 114 2.0 8.0 0.65 4.66 0.67 95 1012.0
20260509120203 66 16 3.0 11.0 0.47 4.66 0.46 95 1011.7
20260509115703 66 46 4.0 11.0 0.28 4.29 0.29 95 1012.1
20260509115203 67 182 4.0 11.0 0.12 4.29 0.11 95 1011.3
20260509114703 68 306 3.0 10.0 0.00 4.29 0.04 95 1011.3
20260509114203 70 58 1.0 10.0 0.00 4.29 0.04 96 1011.5
20260509114122 70 5 0.0 2.0 0.00 4.29 0.04 96 1010.8
20260509113203 70 213 0.0 2.0 0.00 4.29 0.04 96 1010.5
20260509112703 70 213 0.0 2.0 0.00 4.29 0.04 96 1010.1
20260509112203 70 213 0.0 1.0 0.00 4.30 0.04 96 1009.7
20260509111703 70 213 0.0 1.0 0.00 4.30 0.04 96 1009.5
20260509111203 70 213 0.0 1.0 0.00 4.30 0.04 96 1009.3
20260509111040 70 213 0.0 1.0 0.00 4.30 0.04 96 1009.2
20260509110204 70 213 0.0 2.0 0.00 4.30 0.04 96 1009.0
20260509105703 70 213 0.0 2.0 0.00 4.30 0.04 96 1008.8
20260509105203 70 108 0.0 1.0 0.00 4.30 0.04 96 1008.5
20260509104703 70 108 0.0 1.0 0.00 4.30 0.04 96 1008.6
20260509104203 70 108 0.0 1.0 0.00 4.30 0.04 96 1008.8
20260509103703 70 108 0.0 1.0 0.00 4.30 0.04 96 1008.9
20260509103203 70 108 0.0 2.0 0.00 4.30 0.04 96 1008.9
20260509102702 70 108 0.0 2.0 0.00 4.30 0.04 96 1008.9
20260509102203 70 108 0.0 1.0 0.00 4.30 0.04 96 1009.0
20260509101703 70 108 0.0 1.0 0.00 4.30 0.04 96 1009.1
20260509101621 70 108 0.0 1.0 0.00 4.30 0.04 96 1009.1
20260509100703 70 108 0.0 1.0 0.00 4.30 0.04 96 1009.1
20260509100202 70 108 0.0 2.0 0.00 4.30 0.04 96 1008.8
20260509095703 70 108 0.0 2.0 0.00 4.30 0.04 96 1008.8
20260509095202 69 223 0.0 2.0 0.00 4.30 0.04 96 1008.7
20260509094703 69 225 0.0 2.0 0.00 4.30 0.04 96 1008.5
20260509094203 69 87 0.0 2.0 0.00 4.30 0.04 96 1008.3
20260509093702 69 88 0.0 1.0 0.00 4.30 0.04 96 1008.3
20260509093202 69 88 0.0 2.0 0.00 4.30 0.04 96 1008.3
20260509092702 69 88 0.0 2.0 0.00 4.30 0.04 96 1008.3
20260509092203 69 131 0.0 4.0 0.00 4.30 0.04 96 1008.5
20260509091703 69 131 1.0 4.0 0.00 4.30 0.04 96 1008.4
20260509091202 70 116 1.0 6.0 0.00 4.30 0.04 96 1008.4
20260509090703 70 116 1.0 6.0 0.00 4.30 0.04 96 1008.6
20260509090203 70 129 0.0 2.0 0.00 4.30 0.04 96 1008.6
20260509085704 70 129 1.0 5.0 0.00 4.30 0.04 96 1008.6
20260509085203 70 125 1.0 5.0 0.00 4.30 0.04 96 1008.9
20260509084703 70 98 0.0 3.0 0.00 4.30 0.04 96 1008.9
20260509084202 70 97 0.0 2.0 0.00 4.30 0.04 96 1009.2
20260509083703 70 97 0.0 3.0 0.00 4.30 0.04 96 1009.2
20260509083203 70 97 0.0 3.0 0.00 4.30 0.04 96 1009.2
20260509082703 70 113 0.0 2.0 0.00 4.30 0.04 96 1009.2
20260509082203 70 113 1.0 6.0 0.01 4.30 0.04 96 1009.4
20260509081703 70 112 1.0 6.0 0.01 4.30 0.04 96 1009.4
20260509081203 70 76 1.0 3.0 0.03 4.30 0.04 96 1009.5
20260509080703 70 124 1.0 3.0 0.03 4.30 0.04 96 1009.6
20260509080203 70 110 0.0 2.0 0.03 4.30 0.04 96 1009.8
20260509080122 70 110 0.0 2.0 0.03 4.27 0.04 96 1009.9
20260509075203 69 110 1.0 4.0 0.03 4.27 0.04 96 1010.1
20260509074703 69 110 1.0 4.0 0.03 4.27 0.04 96 1009.9
20260509074204 69 110 0.0 3.0 0.03 4.27 0.04 96 1009.7
20260509073700 70 74 0.0 2.0 0.03 4.27 0.04 96 1009.8
20260509073154 70 74 0.0 2.0 0.03 4.27 0.04 96 1010.1
20260509072648 70 70 0.0 2.0 0.03 4.27 0.04 96 1010.5
20260509072143 70 70 1.0 3.0 0.02 4.27 0.03 96 1010.7
20260509071636 70 69 1.0 3.0 0.02 4.27 0.03 96 1010.6
20260509071554 70 286 1.0 3.0 0.00 4.27 0.01 96 1011.4
20260509070632 69 285 1.0 3.0 0.00 4.27 0.01 96 1011.7
20260509070540 69 316 0.0 2.0 0.00 4.27 0.01 96 1010.9
20260509070032 69 93 1.0 2.0 0.00 4.27 0.01 96 1010.3
20260509065330 69 92 0.0 2.0 0.00 4.27 0.01 96 1010.4
20260509064133 69 104 0.0 2.0 0.00 4.27 0.01 96 1011.0
20260509063632 69 104 1.0 2.0 0.00 4.27 0.01 96 1010.9
20260509063617 69 104 0.0 2.0 0.00 4.27 0.01 96 1010.8
20260509063038 69 104 0.0 1.0 0.01 4.27 0.01 96 1010.7
20260509062132 69 104 0.0 1.0 0.01 4.27 0.01 96 1010.9
20260509061632 69 104 0.0 1.0 0.01 4.27 0.01 96 1011.1
20260509061133 69 104 0.0 1.0 0.01 4.27 0.01 96 1011.2
20260509060632 69 104 0.0 1.0 0.01 4.27 0.01 96 1011.2
20260509060132 69 104 0.0 2.0 0.01 4.27 0.01 96 1011.3
20260509055632 69 104 0.0 2.0 0.01 4.26 0.01 96 1011.4
20260509055133 69 104 0.0 1.0 0.01 4.26 0.01 96 1011.6
20260509055126 69 104 0.0 2.0 0.01 4.26 0.01 96 1011.6